• In Uzbekistan
  • List of Countries
  • For 7 days
  • Water Temperature
  • Satellite Maps
  • Weather Map
  • Weather Widgets
  • user-avatar
    Login

    Hourly Weather Raivka

    Today, 17 November, Saturday

    Time Temperature Precipitation Wind Pressure Humidity
    00:00 -4°C° 0 mm 6 mps 764 mmHg 48%
    01:00 -4°C° 0 mm 6 mps 764 mmHg 45%
    02:00 -3°C° 0 mm 4 mps 764 mmHg 46%
    03:00 -4°C° 0 mm 5 mps 764 mmHg 44%
    04:00 -4°C° 0 mm 5 mps 764 mmHg 41%
    05:00 -4°C° 0 mm 6 mps 764 mmHg 38%
    06:00 -4°C° 0 mm 6 mps 764 mmHg 38%
    07:00 -4°C° 0 mm 5 mps 764 mmHg 38%
    08:00 -4°C° 0 mm 5 mps 764 mmHg 38%
    09:00 -2°C° 0 mm 5 mps 764 mmHg 36%
    10:00 -1°C° 0 mm 5 mps 764 mmHg 34%
    11:00 0°C° 0 mm 5 mps 763 mmHg 32%
    12:00 0°C° 0 mm 5 mps 763 mmHg 31%
    13:00 +1°C° 0 mm 4 mps 763 mmHg 31%
    14:00 +1°C° 0 mm 4 mps 762 mmHg 30%
    15:00 0°C° 0 mm 4 mps 762 mmHg 34%
    16:00 0°C° 0 mm 3 mps 762 mmHg 38%
    17:00 -1°C° 0 mm 3 mps 762 mmHg 41%
    18:00 -2°C° 0 mm 3 mps 762 mmHg 43%
    19:00 -2°C° 0 mm 2 mps 762 mmHg 44%
    20:00 -3°C° 0 mm 2 mps 761 mmHg 46%
    21:00 -3°C° 0 mm 2 mps 761 mmHg 46%
    22:00 -3°C° 0 mm 2 mps 761 mmHg 47%
    23:00 -3°C° 0 mm 2 mps 760 mmHg 47%

    Tomorrow, 18 November, Sunday

    Time Temperature Precipitation Wind Pressure Humidity
    00:00 -1°C° 0 mm 1 mps 760 mmHg 48%
    01:00 -2°C° 0 mm 1 mps 760 mmHg 48%
    02:00 -2°C° 0 mm 1 mps 759 mmHg 49%
    03:00 -2°C° 0 mm 1 mps 759 mmHg 49%
    04:00 -3°C° 0 mm 0 mps 758 mmHg 49%
    05:00 -3°C° 0 mm 0 mps 758 mmHg 50%
    06:00 -3°C° 0 mm 0 mps 758 mmHg 48%
    07:00 -2°C° 0 mm 0 mps 757 mmHg 47%
    08:00 -2°C° 0 mm 0 mps 757 mmHg 45%
    09:00 -1°C° 0 mm 0 mps 757 mmHg 41%
    10:00 +2°C° 0 mm 1 mps 756 mmHg 38%
    11:00 +3°C° 0 mm 1 mps 756 mmHg 34%
    12:00 +3°C° 0 mm 1 mps 756 mmHg 34%
    13:00 +3°C° 0 mm 1 mps 756 mmHg 34%
    14:00 +4°C° 0 mm 1 mps 755 mmHg 33%
    15:00 +1°C° 0 mm 0 mps 755 mmHg 37%
    16:00 0°C° 0 mm 0 mps 755 mmHg 41%
    17:00 -1°C° 0 mm 0 mps 755 mmHg 44%
    18:00 -1°C° 0 mm 0 mps 755 mmHg 45%
    19:00 0°C° 0 mm 1 mps 755 mmHg 46%
    20:00 0°C° 0 mm 1 mps 755 mmHg 46%
    21:00 0°C° 0 mm 1 mps 755 mmHg 47%
    22:00 0°C° 0 mm 1 mps 756 mmHg 48%
    23:00 0°C° 0 mm 1 mps 756 mmHg 49%

    Day after tomorrow, 19 November, Monday

    Time Temperature Precipitation Wind Pressure Humidity
    00:00 -1°C° 0 mm 1 mps 756 mmHg 51%
    01:00 -1°C° 0 mm 1 mps 756 mmHg 53%
    02:00 -1°C° 0 mm 1 mps 756 mmHg 55%
    03:00 -3°C° 0 mm 2 mps 756 mmHg 57%
    04:00 -3°C° 0 mm 2 mps 756 mmHg 60%
    05:00 -3°C° 0 mm 2 mps 756 mmHg 62%
    06:00 -3°C° 0 mm 2 mps 756 mmHg 62%
    07:00 -3°C° 0 mm 2 mps 756 mmHg 62%
    08:00 -2°C° 0 mm 3 mps 757 mmHg 62%
    09:00 -1°C° 0 mm 3 mps 757 mmHg 60%
    10:00 0°C° 0 mm 3 mps 757 mmHg 58%
    11:00 +1°C° 0 mm 3 mps 757 mmHg 55%
    12:00 +1°C° 0 mm 3 mps 757 mmHg 55%
    13:00 +1°C° 0 mm 3 mps 757 mmHg 55%
    14:00 +1°C° 0 mm 4 mps 756 mmHg 55%
    15:00 0°C° 0 mm 4 mps 756 mmHg 58%
    16:00 0°C° 0 mm 4 mps 756 mmHg 60%
    17:00 -1°C° 0 mm 4 mps 756 mmHg 62%
    18:00 -1°C° 0 mm 4 mps 756 mmHg 63%
    19:00 -1°C° 0 mm 4 mps 756 mmHg 64%
    20:00 -1°C° 0 mm 4 mps 756 mmHg 64%
    21:00 -1°C° 0 mm 5 mps 756 mmHg 69%
    22:00 -1°C° 0 mm 5 mps 756 mmHg 73%
    23:00 -1°C° 0 mm 5 mps 756 mmHg 77%

    20 November, Tuesday

    Time Temperature Precipitation Wind Pressure Humidity
    00:00 0°C° 0.1 mm 5 mps 755 mmHg 81%
    01:00 0°C° 0.1 mm 5 mps 755 mmHg 85%
    02:00 0°C° 0.1 mm 5 mps 755 mmHg 89%
    03:00 -1°C° 0.3 mm 6 mps 754 mmHg 89%
    04:00 -1°C° 0.3 mm 6 mps 754 mmHg 90%
    05:00 +1°C° 0.3 mm 6 mps 753 mmHg 90%
    06:00 +1°C° 1 mm 6 mps 753 mmHg 89%
    07:00 -1°C° 1 mm 6 mps 753 mmHg 89%
    08:00 -1°C° 1 mm 6 mps 752 mmHg 88%
    09:00 -1°C° 1.2 mm 6 mps 752 mmHg 89%
    10:00 -1°C° 1.2 mm 6 mps 751 mmHg 91%
    11:00 -1°C° 1.2 mm 6 mps 751 mmHg 92%
    12:00 0°C° 0.3 mm 5 mps 751 mmHg 92%
    13:00 0°C° 0.3 mm 5 mps 751 mmHg 92%
    14:00 0°C° 0.3 mm 5 mps 750 mmHg 93%
    15:00 -1°C° 0.1 mm 4 mps 750 mmHg 93%
    16:00 -1°C° 0.1 mm 4 mps 751 mmHg 93%
    17:00 -1°C° 0.1 mm 4 mps 751 mmHg 92%
    18:00 -2°C° 0 mm 4 mps 751 mmHg 92%
    19:00 -2°C° 0 mm 4 mps 751 mmHg 92%
    20:00 -2°C° 0 mm 4 mps 751 mmHg 91%
    21:00 -2°C° 0 mm 4 mps 751 mmHg 91%
    22:00 -1°C° 0 mm 3 mps 752 mmHg 91%
    23:00 -1°C° 0 mm 3 mps 752 mmHg 91%

    21 November, Wednesday

    Time Temperature Precipitation Wind Pressure Humidity
    00:00 -1°C° 0 mm 3 mps 752 mmHg 90%
    01:00 -1°C° 0 mm 3 mps 752 mmHg 90%
    02:00 -1°C° 0 mm 3 mps 752 mmHg 90%
    03:00 -1°C° 0 mm 3 mps 752 mmHg 90%
    04:00 -1°C° 0 mm 3 mps 752 mmHg 90%
    05:00 -1°C° 0 mm 3 mps 752 mmHg 90%
    06:00 -1°C° 0 mm 3 mps 752 mmHg 89%
    07:00 -1°C° 0 mm 3 mps 752 mmHg 89%
    08:00 -1°C° 0 mm 3 mps 752 mmHg 89%
    09:00 -1°C° 0 mm 3 mps 752 mmHg 88%
    10:00 -2°C° 0 mm 4 mps 752 mmHg 87%
    11:00 -2°C° 0 mm 4 mps 752 mmHg 86%
    12:00 -2°C° 0 mm 4 mps 752 mmHg 85%
    13:00 -2°C° 0 mm 4 mps 752 mmHg 84%
    14:00 -2°C° 0 mm 4 mps 752 mmHg 84%
    15:00 -2°C° 0 mm 4 mps 752 mmHg 84%
    16:00 -2°C° 0 mm 4 mps 753 mmHg 84%
    17:00 -3°C° 0 mm 4 mps 753 mmHg 84%
    18:00 -3°C° 0 mm 4 mps 753 mmHg 83%
    19:00 -3°C° 0 mm 4 mps 753 mmHg 82%
    20:00 -3°C° 0 mm 4 mps 753 mmHg 81%
    21:00 -3°C° 0 mm 4 mps 754 mmHg 81%
    22:00 -3°C° 0 mm 4 mps 754 mmHg 81%
    23:00 -3°C° 0 mm 4 mps 754 mmHg 81%

    22 November, Thursday

    Time Temperature Precipitation Wind Pressure Humidity
    00:00 -3°C° 0 mm 4 mps 754 mmHg 80%
    01:00 -3°C° 0 mm 4 mps 754 mmHg 79%
    02:00 -3°C° 0 mm 4 mps 754 mmHg 78%
    03:00 -3°C° 0 mm 4 mps 754 mmHg 79%
    04:00 -4°C° 0 mm 4 mps 754 mmHg 80%
    05:00 -4°C° 0 mm 4 mps 755 mmHg 82%
    06:00 -4°C° 0 mm 4 mps 755 mmHg 82%
    07:00 -4°C° 0 mm 4 mps 755 mmHg 83%
    08:00 -5°C° 0 mm 4 mps 755 mmHg 84%
    09:00 -4°C° 0 mm 4 mps 755 mmHg 80%
    10:00 -3°C° 0 mm 4 mps 755 mmHg 76%
    11:00 -3°C° 0 mm 4 mps 755 mmHg 72%
    12:00 -2°C° 0 mm 4 mps 755 mmHg 71%
    13:00 -2°C° 0 mm 4 mps 755 mmHg 71%
    14:00 -2°C° 0 mm 4 mps 755 mmHg 70%
    15:00 -2°C° 0 mm 4 mps 755 mmHg 72%
    16:00 -3°C° 0 mm 4 mps 756 mmHg 73%
    17:00 -3°C° 0 mm 4 mps 756 mmHg 75%
    18:00 -4°C° 0 mm 3 mps 756 mmHg 76%
    19:00 -4°C° 0 mm 3 mps 756 mmHg 78%
    20:00 -5°C° 0 mm 3 mps 756 mmHg 80%
    21:00 -5°C° 0 mm 3 mps 756 mmHg 82%
    22:00 -5°C° 0 mm 3 mps 757 mmHg 84%
    23:00 -6°C° 0 mm 3 mps 757 mmHg 86%
    Show more